[[{"header":{"parameterUnit":"m.s-1","parameterCategory":1,"la1":30.2991,"la2":30.254,"lo1":-89.0895,"lo2":-89.0444,"dy":0.0017,"dx":0.0017,"nx":28,"ny":28,"refTime":"2024-02-25T09:00:00:Z","depth":0,"parameterNumber":2,"parameterNumberName":"U-component_of_WINDS"},"data":[0,0,0,0,0,0,0,0,0,0,0,0,0,0,0,0,0,0,0,0,0,0,0,0,0,0,0,0,0,0,0,0,0,0,0,0,0,0,0,0,0,0,0,0,0,0,0,0,0,0,0,0,0,0,0,0,0,0,-1.7577,-1.7578,0,-1.7743,-1.7745,-1.7747,-1.7745,-1.7742,-1.774,-1.7738,-1.7911,-1.7917,-1.7924,0,0,0,0,0,0,0,0,0,0,0,0,0,-1.7259,-1.7264,-1.7576,-1.7578,-1.7581,-1.7743,-1.7745,-1.7747,-1.7745,-1.7742,-1.774,-1.7737,-1.7909,-1.7917,-1.7925,0,0,0,0,0,0,0,0,0,0,0,0,0,-1.7408,-1.7266,-1.7576,-1.7599,-1.7603,-1.7742,-1.7745,-1.7748,-1.7746,-1.7742,-1.7739,-1.7736,-1.7906,-1.7916,-1.7926,-1.8054,0,0,-1.7956,-1.7961,0,0,0,0,0,0,0,0,-1.74,-1.742,-1.7594,-1.7598,-1.7602,-1.772,-1.7696,-1.7851,-1.7746,-1.7691,-1.7738,-1.7734,-1.785,-1.7865,-1.7903,-1.8062,-1.807,-1.7957,-1.7963,-1.7968,-1.797,0,0,0,0,0,0,0,-1.7389,-1.7413,-1.7642,-1.7596,-1.7601,-1.7602,-1.7619,-1.7725,-1.7788,-1.7696,-1.7696,-1.7716,-1.7852,-1.7894,-1.7907,-1.8072,-1.7957,-1.7966,-1.7972,-1.7976,-1.8345,-1.8349,0,0,0,0,0,0,-1.7374,-1.7404,-1.7637,-1.7647,-1.749,-1.761,-1.763,-1.7685,-1.7786,-1.7798,-1.7718,-1.7715,-1.7878,-1.7896,-1.7913,-1.807,-1.7968,-1.7977,-1.7983,-1.8341,-1.8346,-1.835,0,0,0,0,0,0,-1.7367,-1.7395,-1.763,-1.7526,-1.7556,-1.7619,-1.7682,-1.769,-1.7732,-1.7803,-1.7815,-1.775,-1.7876,-1.7899,-1.8019,-1.8076,-1.7981,-1.7991,-1.8337,-1.8343,-1.8348,-1.8385,0,0,0,0,0,0,-1.7358,-1.7392,-1.7441,-1.7527,-1.7561,-1.7733,-1.7685,-1.7696,-1.7749,-1.7746,-1.7835,-1.7847,-1.7875,-1.8004,-1.8029,-1.8088,-1.7998,-1.8332,-1.8339,-1.8346,-1.8379,-1.8391,-1.8402,0,0,0,0,0,-1.7347,-1.7446,-1.7444,-1.7472,-1.7624,-1.7736,-1.7756,-1.7786,-1.7753,-1.7804,-1.7849,-1.7844,-1.8066,-1.8016,-1.8044,-1.8108,-1.8328,-1.8337,-1.8346,-1.8374,-1.8389,-1.8402,0,0,0,0,0,0,-1.7366,-1.7457,-1.7456,-1.7586,-1.7653,-1.7735,-1.78,-1.7801,-1.7879,-1.7873,-1.7908,-1.7928,-1.8047,-1.809,-1.8033,-1.8237,-1.8193,-1.8208,-1.8205,-1.822,-1.8231,-1.8219,-1.8007,0,0,0,0,0,-1.7385,-1.7468,-1.7543,-1.7651,-1.7684,-1.7736,-1.7786,-1.7803,-1.7875,-1.7903,-1.7958,-1.8028,-1.8113,-1.8169,-1.8252,-1.8385,-1.8405,-1.8442,-1.8454,-1.8463,-1.8475,-1.8549,-1.8566,-1.8378,-1.8378,-1.8378,0,0,-1.7426,-1.7486,-1.7536,-1.7656,-1.771,-1.7796,-1.776,-1.7852,-1.7916,-1.7918,-1.8034,-1.8076,-1.8157,-1.8284,-1.8343,-1.8323,-1.8531,-1.8474,-1.848,-1.8488,-1.8559,-1.8577,-1.8593,-1.8384,-1.8383,-1.8382,0,0,-1.7544,-1.7598,-1.7693,-1.7747,-1.7829,-1.7863,-1.7886,-1.7968,-1.7996,-1.8113,-1.8116,-1.8193,-1.8339,-1.8397,-1.8445,-1.8584,-1.8583,-1.861,-1.867,-1.8741,-1.8756,-1.877,-1.8819,-1.8837,-1.8622,-1.8622,-1.8622,0,-1.7584,-1.7713,-1.7741,-1.7834,-1.7886,-1.7891,-1.7987,-1.8039,-1.8145,-1.8181,-1.8157,-1.8341,-1.8395,-1.8536,-1.8569,-1.8609,-1.8636,-1.86,-1.8752,-1.8765,-1.8778,-1.8826,-1.8845,-1.8625,-1.8625,-1.8624,-1.8624,0,-1.7759,-1.7848,-1.7915,-1.8015,-1.8075,-1.8169,-1.8213,-1.827,-1.8282,-1.8319,-1.8438,-1.8503,-1.8599,-1.8634,-1.8646,-1.8776,-1.8761,-1.8744,-1.8701,-1.8798,-1.8844,-1.8863,-1.8629,-1.8628,-1.8627,-1.8627,0,0,-1.7894,-1.8008,-1.8033,-1.8078,-1.8169,-1.8239,-1.8333,-1.8426,-1.8475,-1.8547,-1.8627,-1.8751,-1.8736,-1.879,-1.881,-1.8872,-1.8978,-1.8848,-1.885,-1.887,-1.9126,-1.9138,-1.9159,-1.8978,-1.8981,-1.8984,-1.9119,0,-1.8021,-1.8188,-1.8217,-1.8363,-1.8446,-1.8451,-1.8533,-1.8598,-1.8635,-1.8711,-1.8751,-1.8838,-1.8811,-1.8844,-1.8906,-1.8952,-1.903,-1.8943,-1.9053,-1.9057,-1.9033,-1.9182,-1.9196,-1.932,-1.9137,-1.914,-1.9142,0,-1.8193,-1.8269,-1.8423,-1.8502,-1.8538,-1.8611,-1.8699,-1.8771,-1.8845,-1.8867,-1.8928,-1.894,-1.9038,-1.899,-1.9127,-1.9067,-1.9114,-1.9143,-1.9149,-1.916,-1.9105,-1.9198,-1.936,-1.9379,-1.917,-1.9168,-1.9166,0,-1.8276,-1.8417,-1.8527,-1.8566,-1.8661,-1.8713,-1.8755,-1.8825,-1.8879,-1.8956,-1.8991,-1.9079,-1.9127,-1.9194,-1.9229,-1.9191,-1.9364,-1.9319,-1.9385,-1.9385,-1.9422,-1.9419,-1.9593,-1.9452,-1.9452,-1.9451,-1.9451,0,-1.8415,-1.851,-1.8566,-1.8634,-1.8739,-1.8771,-1.8876,-1.8917,-1.8979,-1.9056,-1.9066,-1.9138,-1.918,-1.9258,-1.9286,-1.9395,-1.9417,-1.9438,-1.9444,-1.9437,-1.9434,-1.9468,-1.9461,-1.9456,-1.9455,-1.9454,-1.9453,0,-1.8526,-1.8567,-1.8688,-1.8768,-1.879,-1.8865,-1.8934,-1.9,-1.9036,-1.9133,-1.9158,-1.9215,-1.9307,-1.9349,-1.9463,-1.9482,-1.9606,-1.9607,-1.9581,-1.9583,-1.9648,-1.9641,-1.985,-1.9879,-1.9718,-1.972,-1.9721,0,-1.8612,-1.8685,-1.8772,-1.8824,-1.8867,-1.895,-1.9005,-1.9039,-1.9096,-1.9186,-1.9241,-1.9334,-1.941,-1.9557,-1.9609,-1.9697,-1.9699,-1.9767,-1.9713,-1.9703,-1.97,-1.9696,-1.9703,-1.9776,-1.9778,-1.9779,-1.978,0,-1.8761,-1.8778,-1.8856,-1.8941,-1.9006,-1.9076,-1.9144,-1.9185,-1.9231,-1.9294,-1.9388,-1.9447,-1.9563,-1.9655,-1.9746,-1.979,-1.9793,-1.9797,-1.9817,-1.981,-1.9792,-1.9803,-1.9608,-1.9792,-1.9791,-1.979,-1.9789,-1.9789,-1.8862,-1.8927,-1.8998,-1.9085,-1.9139,-1.9203,-1.9269,-1.9313,-1.9392,-1.9488,-1.9504,-1.9604,-1.9677,-1.9799,-1.9846,-1.9926,-1.991,-1.9939,-1.9946,-1.9953,-1.9956,-1.978,-1.9942,-1.9942,-1.9942,-1.9942,-1.9941,0,-1.9011,-1.9057,-1.9137,-1.9231,-1.9299,-1.9295,-1.937,-1.9428,-1.9516,-1.9582,-1.9656,-1.9765,-1.9854,-1.9913,-2.0003,-2.0055,-2.0059,-2.0078,-2.0074,-2.0084,-1.9966,-1.9939,-2.0073,-2.0073,-2.0073,-2.0073,-2.0073,-2.0073,-1.9097,-1.9205,-1.9231,-1.9367,-1.9412,-1.951,-1.9553,-1.9612,-1.9665,-1.9785,-1.9859,-1.9896,-1.996,-2.0055,-2.0136,-2.0151,-2.0184,-2.0204,-2.0218,-2.0106,-2.0093,-2.0079,-2.0055,-2.0211,-2.0211,-2.033,-2.0331,-2.0332]},{"header":{"parameterUnit":"m.s-1","parameterCategory":1,"la1":30.2991,"la2":30.254,"lo1":-89.0895,"lo2":-89.0444,"dy":0.0017,"dx":0.0017,"nx":28,"ny":28,"refTime":"2024-02-25T09:00:00:Z","depth":0,"parameterNumber":3,"parameterNumberName":"V-component_of_WINDS"},"data":[0,0,0,0,0,0,0,0,0,0,0,0,0,0,0,0,0,0,0,0,0,0,0,0,0,0,0,0,0,0,0,0,0,0,0,0,0,0,0,0,0,0,0,0,0,0,0,0,0,0,0,0,0,0,0,0,0,0,-1.0446,-1.0447,0,-1.0513,-1.0514,-1.0515,-1.0536,-1.0536,-1.0535,-1.0535,-1.0603,-1.0605,-1.0608,0,0,0,0,0,0,0,0,0,0,0,0,0,-1.0335,-1.0337,-1.0446,-1.0447,-1.0448,-1.0513,-1.0514,-1.0515,-1.0536,-1.0536,-1.0535,-1.0535,-1.0603,-1.0605,-1.0608,0,0,0,0,0,0,0,0,0,0,0,0,0,-1.0391,-1.0338,-1.0446,-1.0466,-1.0469,-1.0513,-1.0514,-1.0515,-1.0536,-1.0536,-1.0535,-1.0535,-1.0602,-1.0605,-1.0608,-1.0637,0,0,-1.0618,-1.0619,0,0,0,0,0,0,0,0,-1.0388,-1.0395,-1.0462,-1.0465,-1.0468,-1.0516,-1.05,-1.0556,-1.0536,-1.0511,-1.0535,-1.0535,-1.0575,-1.058,-1.0594,-1.064,-1.0643,-1.0618,-1.062,-1.0621,-1.0622,0,0,0,0,0,0,0,-1.0384,-1.0392,-1.0473,-1.0463,-1.0467,-1.0472,-1.0479,-1.0511,-1.0544,-1.0513,-1.0515,-1.0522,-1.0576,-1.059,-1.0595,-1.0644,-1.0618,-1.0621,-1.0623,-1.0624,-1.0715,-1.0716,0,0,0,0,0,0,-1.0377,-1.0389,-1.047,-1.0475,-1.0426,-1.0474,-1.0482,-1.0501,-1.0544,-1.055,-1.0522,-1.0523,-1.0585,-1.0592,-1.0598,-1.0633,-1.0621,-1.0624,-1.0626,-1.0715,-1.0715,-1.0716,0,0,0,0,0,0,-1.0374,-1.0384,-1.0468,-1.0432,-1.0443,-1.0476,-1.0497,-1.0502,-1.0517,-1.0551,-1.0557,-1.0531,-1.0585,-1.0593,-1.0627,-1.0636,-1.0626,-1.0628,-1.0714,-1.0715,-1.0716,-1.0705,0,0,0,0,0,0,-1.0371,-1.0383,-1.0394,-1.0432,-1.0445,-1.0496,-1.0498,-1.0504,-1.0522,-1.0523,-1.0561,-1.0567,-1.0585,-1.0622,-1.063,-1.064,-1.0631,-1.0713,-1.0715,-1.0716,-1.0705,-1.0705,-1.0706,0,0,0,0,0,-1.0367,-1.0389,-1.0395,-1.0405,-1.046,-1.0496,-1.0504,-1.0525,-1.0523,-1.0535,-1.0556,-1.0566,-1.0634,-1.0625,-1.0634,-1.0646,-1.0713,-1.0714,-1.0715,-1.0704,-1.0705,-1.0706,0,0,0,0,0,0,-1.0352,-1.0394,-1.0401,-1.0436,-1.0462,-1.05,-1.0515,-1.0525,-1.0552,-1.0552,-1.0577,-1.0585,-1.0616,-1.0634,-1.0624,-1.0675,-1.0674,-1.0677,-1.0662,-1.0663,-1.0664,-1.0659,-1.0634,0,0,0,0,0,-1.0352,-1.0378,-1.0414,-1.0441,-1.0454,-1.0482,-1.0499,-1.0512,-1.0541,-1.0552,-1.0576,-1.0603,-1.063,-1.0648,-1.0675,-1.0707,-1.0715,-1.0719,-1.072,-1.072,-1.0723,-1.074,-1.0743,-1.072,-1.072,-1.072,0,0,-1.0354,-1.038,-1.0395,-1.0439,-1.0461,-1.0486,-1.0491,-1.0519,-1.0538,-1.0556,-1.0589,-1.0607,-1.0639,-1.0671,-1.0687,-1.0687,-1.0731,-1.0722,-1.0722,-1.0724,-1.0742,-1.0744,-1.0746,-1.0721,-1.0721,-1.0721,0,0,-1.037,-1.0393,-1.0418,-1.0439,-1.0472,-1.0491,-1.0496,-1.0532,-1.0545,-1.0578,-1.0592,-1.0615,-1.0661,-1.0683,-1.07,-1.0722,-1.0732,-1.073,-1.0734,-1.0751,-1.0752,-1.0754,-1.0762,-1.0764,-1.0733,-1.0733,-1.0733,0,-1.0368,-1.0408,-1.0429,-1.0456,-1.0474,-1.0491,-1.0516,-1.0536,-1.0575,-1.0587,-1.0587,-1.0645,-1.0668,-1.0705,-1.071,-1.0724,-1.0731,-1.0727,-1.075,-1.0752,-1.0754,-1.0762,-1.0764,-1.0732,-1.0732,-1.0732,-1.0732,0,-1.0403,-1.043,-1.0446,-1.0484,-1.0504,-1.053,-1.0555,-1.0572,-1.0584,-1.0602,-1.0635,-1.0662,-1.0694,-1.0704,-1.0716,-1.0743,-1.0742,-1.0746,-1.0745,-1.0756,-1.0763,-1.0766,-1.0732,-1.0732,-1.0732,-1.0732,0,0,-1.0413,-1.0461,-1.0467,-1.0483,-1.052,-1.0542,-1.0567,-1.0599,-1.0613,-1.0639,-1.0661,-1.0699,-1.0703,-1.0722,-1.0736,-1.0751,-1.0766,-1.0753,-1.0754,-1.0754,-1.0797,-1.0793,-1.0796,-1.0772,-1.0773,-1.0773,-1.0794,0,-1.0433,-1.048,-1.05,-1.0538,-1.0562,-1.0578,-1.06,-1.0625,-1.0642,-1.0665,-1.0684,-1.0711,-1.0713,-1.0725,-1.074,-1.0761,-1.0775,-1.076,-1.0792,-1.0793,-1.0784,-1.08,-1.0798,-1.0816,-1.0797,-1.0797,-1.0798,0,-1.0464,-1.0491,-1.0531,-1.0563,-1.0574,-1.0594,-1.0624,-1.0646,-1.0674,-1.0685,-1.0706,-1.0719,-1.0746,-1.0743,-1.0779,-1.0769,-1.0783,-1.0795,-1.0796,-1.08,-1.0796,-1.0805,-1.0822,-1.0825,-1.0803,-1.0802,-1.0802,0,-1.0467,-1.0512,-1.0542,-1.0556,-1.0595,-1.0608,-1.0625,-1.0652,-1.0669,-1.0695,-1.0706,-1.0735,-1.075,-1.0772,-1.0792,-1.0788,-1.0826,-1.0825,-1.0836,-1.0836,-1.0844,-1.0843,-1.0864,-1.0853,-1.0853,-1.0853,-1.0853,0,-1.0488,-1.0512,-1.0543,-1.0561,-1.0588,-1.061,-1.0635,-1.0653,-1.0677,-1.0698,-1.0713,-1.0733,-1.0758,-1.0781,-1.0797,-1.0824,-1.0831,-1.0841,-1.0845,-1.084,-1.0838,-1.085,-1.0849,-1.0854,-1.0854,-1.0853,-1.0853,0,-1.0496,-1.0518,-1.0551,-1.0584,-1.0593,-1.0612,-1.064,-1.0658,-1.0675,-1.0702,-1.071,-1.0737,-1.0764,-1.0786,-1.0822,-1.0833,-1.0861,-1.0866,-1.0852,-1.0854,-1.0864,-1.0862,-1.0893,-1.0897,-1.0883,-1.0883,-1.0883,0,-1.0508,-1.0526,-1.0562,-1.0577,-1.0594,-1.0618,-1.0636,-1.0657,-1.0674,-1.0707,-1.072,-1.0749,-1.0773,-1.0815,-1.0838,-1.0865,-1.087,-1.0879,-1.0875,-1.0868,-1.087,-1.0869,-1.0871,-1.088,-1.088,-1.088,-1.088,0,-1.0527,-1.0537,-1.0561,-1.0589,-1.061,-1.0633,-1.0656,-1.0668,-1.0693,-1.0712,-1.074,-1.0758,-1.0794,-1.0822,-1.0851,-1.0868,-1.0878,-1.0881,-1.0885,-1.088,-1.0871,-1.0875,-1.0853,-1.088,-1.088,-1.088,-1.088,-1.088,-1.0537,-1.0554,-1.0581,-1.0608,-1.0627,-1.0649,-1.0667,-1.0686,-1.071,-1.0741,-1.0752,-1.078,-1.0806,-1.0847,-1.0863,-1.0886,-1.0886,-1.0892,-1.0894,-1.0895,-1.0894,-1.0867,-1.0891,-1.0891,-1.0891,-1.0891,-1.0891,0,-1.0557,-1.0575,-1.0599,-1.0631,-1.0652,-1.0659,-1.0685,-1.0701,-1.0726,-1.075,-1.0772,-1.0804,-1.083,-1.0855,-1.0882,-1.0895,-1.09,-1.0902,-1.0901,-1.0905,-1.0892,-1.0886,-1.0897,-1.0897,-1.0897,-1.0897,-1.0897,-1.0897,-1.057,-1.0598,-1.0611,-1.0649,-1.0666,-1.0695,-1.0709,-1.0728,-1.0747,-1.0781,-1.0803,-1.0819,-1.0842,-1.0871,-1.0896,-1.0902,-1.0911,-1.0911,-1.0919,-1.0907,-1.0906,-1.0905,-1.0899,-1.0913,-1.0913,-1.093,-1.093,-1.093]}]]